DW7756 Weather Reports


Display with metric or nautical units.
time (UTC)temp
F
wind
direction
speed
MPH
gust
MPH
rain 1hr
in
rain 24hr
in
rain mn
in
humidity
%
barometer
mb
20260903014546 80 0 0.0 2.0 0.00 0.31 0.31 85 1015.5
20260903013047 80 0 0.0 2.0 0.00 0.31 0.31 85 1015.3
20260903011543 80 81 0.0 2.0 0.00 0.31 0.31 84 1015.1
20260903010045 80 81 1.0 4.0 0.00 0.31 0.31 84 1014.9
20260903004535 81 89 1.0 3.0 0.00 0.32 0.31 84 1015.0
20260903003039 81 100 1.0 2.0 0.00 0.32 0.31 84 1014.7
20260903001538 81 0 0.0 4.0 0.00 0.32 0.31 83 1014.9
20260903000035 82 126 1.0 4.0 0.00 0.32 0.31 82 1014.9
20260902234551 82 74 1.0 4.0 0.00 0.33 0.31 82 1014.6
20260902233037 82 76 1.0 3.0 0.00 0.33 0.31 81 1014.4
20260902231543 83 101 1.0 5.0 0.00 0.33 0.31 81 1014.2
20260902230039 83 58 1.0 5.0 0.00 0.33 0.31 80 1014.3
20260902224542 84 86 2.0 6.0 0.00 0.33 0.31 79 1014.1
20260902223037 84 90 2.0 4.0 0.00 0.33 0.31 79 1014.1
20260902221536 84 86 2.0 6.0 0.00 0.33 0.31 79 1014.2
20260902220037 85 80 2.0 7.0 0.00 0.33 0.31 78 1014.1
20260902214540 85 36 2.0 8.0 0.00 0.33 0.31 78 1014.0
20260902213039 86 71 1.0 4.0 0.00 0.33 0.31 77 1014.2
20260902211540 86 92 2.0 9.0 0.00 0.33 0.31 76 1014.0
20260902210036 87 44 1.0 8.0 0.00 0.33 0.31 75 1014.1
20260902204537 87 50 2.0 9.0 0.00 0.33 0.31 76 1013.9
20260902203039 87 84 3.0 12.0 0.00 0.33 0.31 76 1014.0
20260902201540 87 74 2.0 7.0 0.00 0.33 0.31 78 1014.1
20260902200037 86 83 1.0 5.0 0.00 0.33 0.31 78 1014.1
20260902194537 85 22 1.0 6.0 0.00 0.33 0.31 79 1014.3
20260902193039 85 113 2.0 8.0 0.00 0.33 0.31 81 1014.4
20260902191537 84 12 1.0 6.0 0.00 0.33 0.31 86 1014.6
20260902190037 82 0 1.0 2.0 0.00 0.33 0.31 87 1014.6
20260902184538 81 12 0.0 3.0 0.11 0.33 0.31 87 1015.1
20260902183040 80 58 0.0 3.0 0.20 0.33 0.31 86 1015.3
20260902181537 81 0 0.0 1.0 0.20 0.33 0.31 86 1015.4
20260902180052 81 91 0.0 4.0 0.20 0.33 0.31 84 1015.6
20260902174536 83 76 1.0 7.0 0.07 0.20 0.18 81 1015.8
20260902173040 85 84 4.0 9.0 0.00 0.13 0.11 78 1015.6
20260902171548 86 0 1.0 6.0 0.00 0.13 0.11 81 1015.6
20260902170039 84 282 2.0 3.0 0.00 0.13 0.11 84 1015.7
20260902164540 83 0 0.0 2.0 0.00 0.13 0.11 86 1015.9
20260902163036 83 205 1.0 2.0 0.08 0.13 0.11 85 1015.9
20260902161541 83 0 0.0 2.0 0.10 0.13 0.11 86 1015.9
20260902160038 83 0 0.0 2.0 0.10 0.13 0.11 85 1016.1
20260902154535 82 0 1.0 4.0 0.10 0.13 0.11 84 1016.3
20260902153036 83 9 0.0 3.0 0.02 0.05 0.03 83 1016.5
20260902151536 83 12 1.0 4.0 0.00 0.03 0.01 81 1016.5
20260902150038 83 0 0.0 2.0 0.00 0.03 0.01 81 1016.5
20260902144537 83 0 0.0 2.0 0.00 0.03 0.01 80 1016.3
20260902143038 83 0 0.0 2.0 0.00 0.03 0.01 80 1016.4
20260902141538 84 15 0.0 6.0 0.00 0.03 0.01 81 1016.2
20260902140040 83 65 2.0 7.0 0.00 0.03 0.01 84 1016.2
20260902134538 82 339 5.0 10.0 0.00 0.03 0.01 85 1016.2
20260902133035 82 317 3.0 8.0 0.00 0.03 0.01 89 1016.0
20260902131538 81 360 2.0 5.0 0.00 0.03 0.01 91 1015.9
20260902130042 80 41 1.0 5.0 0.00 0.03 0.01 91 1016.0
20260902124539 79 317 2.0 5.0 0.00 0.03 0.01 91 1016.1
20260902123035 78 21 0.0 2.0 0.00 0.03 0.01 91 1015.9
20260902121538 78 5 1.0 3.0 0.00 0.03 0.01 91 1015.8
20260902120039 77 348 1.0 3.0 0.00 0.03 0.01 91 1015.7
20260902114602 77 0 0.0 2.0 0.00 0.03 0.01 91 1015.7
20260902113047 76 314 1.0 3.0 0.00 0.03 0.01 91 1015.7
20260902111537 76 0 0.0 3.0 0.00 0.03 0.01 91 1015.6
20260902110040 76 333 1.0 3.0 0.00 0.03 0.01 91 1015.3
20260902104539 76 303 1.0 2.0 0.00 0.03 0.01 91 1015.2
20260902103035 76 0 0.0 2.0 0.00 0.03 0.01 91 1015.1
20260902101534 76 303 0.0 2.0 0.00 0.03 0.01 91 1015.1
20260902100038 76 0 0.0 2.0 0.00 0.03 0.01 91 1015.0
20260902094538 76 0 0.0 0.0 0.00 0.03 0.01 91 1015.1
20260902093035 76 303 0.0 2.0 0.00 0.03 0.01 91 1015.0
20260902091547 76 0 0.0 0.0 0.00 0.03 0.01 91 1015.0
20260902090050 76 0 0.0 1.0 0.00 0.03 0.01 90 1014.7
20260902084538 76 0 0.0 0.0 0.00 0.03 0.01 90 1014.6
20260902083034 77 0 0.0 2.0 0.00 0.03 0.01 90 1014.4
20260902081540 77 303 0.0 2.0 0.00 0.03 0.01 90 1014.7
20260902080037 77 303 0.0 2.0 0.00 0.03 0.01 90 1014.5
20260902074547 77 0 0.0 2.0 0.00 0.03 0.01 90 1014.6
20260902073038 77 303 1.0 2.0 0.00 0.03 0.01 90 1014.8
20260902071534 77 303 1.0 3.0 0.00 0.03 0.01 90 1014.9
20260902070039 77 0 0.0 2.0 0.00 0.03 0.01 90 1015.0
20260902064539 76 331 1.0 4.0 0.00 0.03 0.01 90 1015.1
20260902063035 77 30 0.0 1.0 0.00 0.03 0.01 90 1015.1
20260902061543 77 0 0.0 2.0 0.00 0.03 0.01 90 1015.0
20260902060051 77 0 0.0 0.0 0.00 0.03 0.01 89 1015.1
20260902054541 77 0 0.0 2.0 0.00 0.03 0.01 89 1015.3
20260902053040 77 30 0.0 2.0 0.00 0.03 0.01 89 1015.4
20260902051540 77 30 0.0 2.0 0.01 0.03 0.01 89 1015.3
20260902050043 77 30 0.0 2.0 0.01 0.03 0.01 89 1015.3
20260902044539 77 30 0.0 2.0 0.01 0.03 0.01 89 1015.2
20260902043037 77 30 1.0 2.0 0.01 0.03 0.01 89 1015.2
20260902041539 77 0 0.0 0.0 0.00 0.02 0.00 89 1015.3
20260902040040 77 0 0.0 2.0 0.00 0.02 0.00 89 1015.3
20260902034540 77 30 1.0 2.0 0.00 0.02 0.02 88 1015.6
20260902033034 77 0 0.0 0.0 0.00 0.02 0.02 88 1015.8
20260902031538 77 0 0.0 0.0 0.00 0.02 0.02 88 1016.3
20260902030035 78 0 0.0 1.0 0.00 0.02 0.02 88 1016.3
20260902024538 78 30 0.0 2.0 0.00 0.02 0.02 88 1016.3
20260902023042 78 30 0.0 1.0 0.00 0.02 0.02 88 1016.1
20260902021539 78 0 0.0 2.0 0.00 0.02 0.02 87 1016.2
20260902020036 78 30 0.0 2.0 0.00 0.02 0.02 87 1016.3